Radiation Dose at Monitoring Post of Fukushima Daini Nuclear Power Station
Date,Time,MP-1(microSv/h),MP-2(microSv/h),MP-3(microSv/h),MP-4(microSv/h),MP-5(microSv/h),MP-6(microSv/h),MP-7(microSv/h),Wind Direction,Wind Velocity(m/s),Rain
2020/09/21,00:00,0.178,0.157,0.261,0.245,0.243,0.140,0.084,-,CALM,No
2020/09/21,00:10,0.176,0.157,0.260,0.247,0.247,0.139,0.084,south,1.0,No
2020/09/21,00:20,0.176,0.157,0.261,0.245,0.245,0.140,0.085,west-southwest,1.5,No
2020/09/21,00:30,0.177,0.155,0.259,0.247,0.246,0.140,0.083,west-southwest,1.5,No
2020/09/21,00:40,0.176,0.158,0.260,0.246,0.245,0.140,0.085,southwest,1.6,No
2020/09/21,00:50,0.178,0.156,0.258,0.246,0.244,0.139,0.084,south,1.1,No
2020/09/21,01:00,0.177,0.156,0.262,0.246,0.245,0.139,0.085,-,CALM,No
2020/09/21,01:10,0.177,0.157,0.259,0.245,0.243,0.140,0.085,southeast,0.9,Yes
2020/09/21,01:20,0.178,0.157,0.261,0.247,0.246,0.139,0.085,west,2.6,Yes
2020/09/21,01:30,0.176,0.156,0.259,0.245,0.243,0.140,0.084,west,1.4,No
2020/09/21,01:40,0.178,0.156,0.260,0.247,0.245,0.139,0.084,east-southeast,0.9,Yes
2020/09/21,01:50,0.177,0.157,0.260,0.245,0.245,0.140,0.084,-,CALM,Yes
2020/09/21,02:00,0.178,0.157,0.260,0.247,0.245,0.140,0.084,northwest,2.7,Yes
2020/09/21,02:10,0.177,0.158,0.261,0.246,0.247,0.139,0.084,northwest,4.8,No
2020/09/21,02:20,0.178,0.156,0.260,0.247,0.244,0.139,0.084,northwest,3.4,Yes
2020/09/21,02:30,0.180,0.159,0.261,0.246,0.247,0.139,0.085,north-northwest,1.7,Yes
2020/09/21,02:40,0.179,0.159,0.260,0.248,0.246,0.140,0.085,northwest,2.3,Yes
2020/09/21,02:50,0.180,0.160,0.262,0.246,0.248,0.141,0.085,northwest,1.5,Yes
2020/09/21,03:00,0.178,0.158,0.261,0.247,0.244,0.141,0.086,northwest,1.6,No
2020/09/21,03:10,0.180,0.158,0.261,0.246,0.247,0.140,0.085,west-southwest,2.3,Yes
2020/09/21,03:20,0.178,0.158,0.259,0.246,0.245,0.140,0.086,-,CALM,No
2020/09/21,03:30,0.179,0.158,0.262,0.246,0.246,0.140,0.086,-,CALM,No
2020/09/21,03:40,0.177,0.157,0.258,0.246,0.245,0.139,0.085,east-southeast,1.5,No
2020/09/21,03:50,0.178,0.158,0.261,0.246,0.244,0.140,0.085,east-southeast,1.8,No
2020/09/21,04:00,0.177,0.157,0.258,0.245,0.246,0.139,0.085,east-southeast,1.9,No
2020/09/21,04:10,0.178,0.158,0.260,0.247,0.244,0.140,0.085,-,CALM,No
2020/09/21,04:20,0.178,0.157,0.257,0.245,0.247,0.140,0.085,east-southeast,1.2,No
2020/09/21,04:30,0.177,0.157,0.259,0.246,0.245,0.139,0.084,-,CALM,No
2020/09/21,04:40,0.178,0.157,0.257,0.245,0.244,0.140,0.085,east,0.6,No
2020/09/21,04:50,0.176,0.158,0.260,0.246,0.245,0.139,0.084,-,CALM,No
2020/09/21,05:00,0.177,0.155,0.258,0.243,0.244,0.140,0.085,northwest,1.0,No
2020/09/21,05:10,0.176,0.157,0.258,0.245,0.246,0.139,0.085,northwest,1.1,No
2020/09/21,05:20,0.178,0.156,0.258,0.244,0.242,0.140,0.084,northwest,1.4,No
2020/09/21,05:30,0.177,0.157,0.257,0.244,0.244,0.140,0.085,northwest,1.6,No
2020/09/21,05:40,0.176,0.155,0.259,0.244,0.244,0.139,0.084,north-northwest,0.9,No
2020/09/21,05:50,0.177,0.157,0.257,0.244,0.244,0.139,0.085,-,CALM,No
2020/09/21,06:00,0.176,0.156,0.258,0.246,0.245,0.138,0.084,-,CALM,No
2020/09/21,06:10,0.177,0.156,0.256,0.244,0.243,0.139,0.084,-,CALM,No
2020/09/21,06:20,0.177,0.156,0.259,0.246,0.245,0.139,0.084,-,CALM,No
2020/09/21,06:30,0.177,0.157,0.256,0.243,0.243,0.139,0.084,-,CALM,No
2020/09/21,06:40,0.177,0.157,0.259,0.246,0.246,0.140,0.085,south-southeast,1.1,No
2020/09/21,06:50,0.176,0.156,0.257,0.244,0.244,0.139,0.084,south,0.9,No
2020/09/21,07:00,0.179,0.157,0.260,0.244,0.244,0.140,0.085,south-southwest,0.7,No
2020/09/21,07:10,0.176,0.156,0.258,0.246,0.246,0.140,0.085,-,CALM,No
2020/09/21,07:20,0.178,0.157,0.257,0.245,0.243,0.141,0.085,-,CALM,No
2020/09/21,07:30,0.176,0.156,0.259,0.247,0.246,0.141,0.084,northwest,2.2,No
2020/09/21,07:40,0.177,0.156,0.257,0.244,0.243,0.139,0.085,north-northwest,2.6,No
2020/09/21,07:50,0.177,0.156,0.258,0.246,0.244,0.140,0.084,north-northwest,2.5,No
2020/09/21,08:00,0.176,0.156,0.257,0.245,0.245,0.140,0.084,northwest,2.6,No
2020/09/21,08:10,0.178,0.156,0.258,0.245,0.243,0.140,0.085,northwest,2.3,No
2020/09/21,08:20,0.176,0.155,0.258,0.246,0.246,0.140,0.084,north-northwest,1.9,No
2020/09/21,08:30,0.177,0.156,0.259,0.244,0.243,0.139,0.084,north-northwest,1.7,No
2020/09/21,08:40,0.178,0.157,0.258,0.245,0.246,0.140,0.085,north-northwest,2.6,No
2020/09/21,08:50,0.176,0.156,0.258,0.244,0.244,0.140,0.084,north-northwest,3.6,No
2020/09/21,09:00,0.178,0.156,0.260,0.247,0.245,0.139,0.085,north-northwest,4.4,No
2020/09/21,09:10,0.176,0.157,0.257,0.245,0.247,0.140,0.085,north,3.8,No
2020/09/21,09:20,0.177,0.156,0.260,0.244,0.244,0.139,0.085,north,4.3,No
2020/09/21,09:30,0.178,0.156,0.258,0.247,0.244,0.139,0.085,north,3.8,No
2020/09/21,09:40,0.176,0.157,0.257,0.244,0.246,0.140,0.084,north-northwest,2.8,No
2020/09/21,09:50,0.178,0.155,0.259,0.245,0.244,0.139,0.085,north-northwest,2.8,No
2020/09/21,10:00,0.178,0.158,0.256,0.245,0.243,0.140,0.084,north-northwest,1.6,No
2020/09/21,10:10,0.175,0.156,0.258,0.244,0.246,0.140,0.085,north-northwest,1.9,No
2020/09/21,10:20,0.178,0.154,0.260,0.243,0.244,0.140,0.085,north-northwest,1.4,No
2020/09/21,10:30,0.178,0.156,0.258,0.247,0.242,0.140,0.085,north-northwest,1.9,No
2020/09/21,10:40,0.176,0.157,0.256,0.245,0.245,0.140,0.085,north,1.6,No
2020/09/21,10:50,0.176,0.157,0.260,0.243,0.246,0.139,0.084,north,1.9,No
2020/09/21,11:00,0.179,0.155,0.258,0.244,0.243,0.139,0.085,north,2.3,No
2020/09/21,11:10,0.177,0.157,0.257,0.246,0.242,0.139,0.085,north-northeast,2.6,No
2020/09/21,11:20,0.176,0.156,0.258,0.245,0.246,0.140,0.084,north-northeast,2.0,No
2020/09/21,11:30,0.179,0.155,0.260,0.243,0.246,0.140,0.084,north-northeast,2.4,No
2020/09/21,11:40,0.179,0.156,0.258,0.244,0.244,0.139,0.085,north-northeast,2.6,No
2020/09/21,11:50,0.176,0.157,0.255,0.247,0.242,0.140,0.084,north,3.2,No
2020/09/21,12:00,0.176,0.156,0.257,0.245,0.243,0.139,0.084,north-northeast,2.4,No
2020/09/21,12:10,0.178,0.156,0.260,0.245,0.245,0.140,0.084,north-northeast,2.4,No
2020/09/21,12:20,0.176,0.157,0.258,0.243,0.246,0.140,0.084,north-northeast,2.5,No
2020/09/21,12:30,0.177,0.158,0.256,0.246,0.244,0.139,0.084,north,2.2,No
2020/09/21,12:40,0.175,0.156,0.258,0.247,0.242,0.139,0.084,north-northeast,2.6,No
2020/09/21,12:50,0.178,0.155,0.261,0.246,0.244,0.140,0.084,north-northeast,1.8,No
2020/09/21,13:00,0.179,0.155,0.258,0.244,0.243,0.140,0.084,north-northeast,1.3,No
2020/09/21,13:10,0.176,0.157,0.258,0.244,0.242,0.139,0.084,north-northeast,1.6,No
2020/09/21,13:20,0.176,0.156,0.256,0.245,0.247,0.139,0.084,north,1.3,No
2020/09/21,13:30,0.175,0.156,0.259,0.247,0.246,0.140,0.084,north,1.5,No
2020/09/21,13:40,0.178,0.156,0.261,0.246,0.245,0.140,0.083,northeast,1.3,No
2020/09/21,13:50,0.177,0.155,0.258,0.244,0.244,0.141,0.084,northeast,1.2,No
2020/09/21,14:00,0.177,0.156,0.257,0.243,0.242,0.140,0.085,north-northeast,1.5,No
2020/09/21,14:10,0.176,0.156,0.256,0.244,0.242,0.139,0.084,northeast,1.9,No
2020/09/21,14:20,0.174,0.157,0.259,0.246,0.242,0.140,0.084,east-northeast,2.1,No
2020/09/21,14:30,0.177,0.155,0.262,0.247,0.243,0.140,0.083,northeast,2.0,No
2020/09/21,14:40,0.179,0.156,0.258,0.246,0.243,0.138,0.083,northeast,1.8,No
2020/09/21,14:50,0.178,0.155,0.257,0.244,0.244,0.139,0.084,east-northeast,1.6,No
2020/09/21,15:00,0.177,0.157,0.258,0.243,0.244,0.140,0.084,east,1.0,No
2020/09/21,15:10,0.175,0.157,0.260,0.247,0.248,0.140,0.084,northeast,1.3,No
2020/09/21,15:20,0.178,0.155,0.259,0.246,0.247,0.139,0.084,northeast,1.4,No
2020/09/21,15:30,0.179,0.157,0.258,0.244,0.244,0.139,0.085,east-northeast,0.7,No
2020/09/21,15:40,0.176,0.157,0.260,0.247,0.243,0.140,0.083,southeast,0.7,No
2020/09/21,15:50,0.175,0.156,0.259,0.246,0.246,0.139,0.083,south,0.9,No
2020/09/21,16:00,0.177,0.156,0.257,0.245,0.246,0.139,0.084,southeast,0.9,No
2020/09/21,16:10,0.178,0.157,0.259,0.245,0.244,0.140,0.084,southeast,0.9,No
2020/09/21,16:20,0.177,0.156,0.259,0.248,0.244,0.139,0.083,-,CALM,No
2020/09/21,16:30,0.177,0.157,0.258,0.243,0.248,0.141,0.084,-,CALM,No
2020/09/21,16:40,0.177,0.157,0.260,0.247,0.245,0.141,0.084,-,CALM,No
2020/09/21,16:50,0.176,0.155,0.259,0.248,0.243,0.139,0.084,south-southeast,0.6,No
2020/09/21,17:00,0.177,0.157,0.257,0.244,0.246,0.139,0.084,-,CALM,No
2020/09/21,17:10,0.178,0.156,0.260,0.248,0.246,0.139,0.084,east,0.9,No
2020/09/21,17:20,0.176,0.156,0.258,0.247,0.244,0.139,0.084,-,CALM,No
2020/09/21,17:30,0.178,0.157,0.261,0.246,0.246,0.139,0.085,-,CALM,No
2020/09/21,17:40,0.177,0.156,0.259,0.247,0.245,0.139,0.084,-,CALM,No
2020/09/21,17:50,0.177,0.157,0.259,0.245,0.244,0.139,0.084,-,CALM,No
2020/09/21,18:00,0.178,0.157,0.260,0.247,0.246,0.140,0.085,-,CALM,No
2020/09/21,18:10,0.176,0.157,0.259,0.245,0.243,0.139,0.084,-,CALM,No
2020/09/21,18:20,0.178,0.156,0.260,0.247,0.247,0.140,0.084,-,CALM,No
2020/09/21,18:30,0.177,0.157,0.259,0.247,0.246,0.140,0.084,-,CALM,No
2020/09/21,18:40,0.177,0.156,0.261,0.247,0.244,0.139,0.084,north-northeast,0.8,No
2020/09/21,18:50,0.178,0.157,0.258,0.247,0.245,0.140,0.084,-,CALM,No
2020/09/21,19:00,0.177,0.155,0.261,0.246,0.244,0.139,0.084,-,CALM,No
2020/09/21,19:10,0.178,0.157,0.258,0.247,0.245,0.140,0.084,north-northwest,1.2,No
2020/09/21,19:20,0.178,0.156,0.261,0.245,0.243,0.140,0.085,north-northeast,1.1,No
2020/09/21,19:30,0.179,0.157,0.258,0.248,0.248,0.139,0.084,north-northeast,1.7,No
2020/09/21,19:40,0.177,0.156,0.262,0.246,0.244,0.138,0.085,north,1.5,No
2020/09/21,19:50,0.179,0.157,0.259,0.247,0.246,0.140,0.084,west-northwest,0.6,No
2020/09/21,20:00,0.176,0.156,0.261,0.245,0.244,0.140,0.084,-,CALM,No
2020/09/21,20:10,0.179,0.157,0.259,0.247,0.246,0.139,0.084,-,CALM,No
2020/09/21,20:20,0.176,0.157,0.261,0.245,0.245,0.139,0.084,-,CALM,No
2020/09/21,20:30,0.178,0.156,0.258,0.248,0.246,0.140,0.084,east-northeast,0.9,No
2020/09/21,20:40,0.177,0.158,0.261,0.246,0.245,0.140,0.085,-,CALM,No
2020/09/21,20:50,0.177,0.157,0.259,0.248,0.246,0.140,0.084,-,CALM,No
2020/09/21,21:00,0.178,0.156,0.261,0.246,0.245,0.140,0.084,-,CALM,No
2020/09/21,21:10,0.177,0.158,0.259,0.246,0.245,0.140,0.084,-,CALM,No
2020/09/21,21:20,0.178,0.155,0.260,0.246,0.245,0.139,0.084,-,CALM,No
2020/09/21,21:30,0.177,0.157,0.258,0.247,0.245,0.140,0.084,northwest,0.6,No
2020/09/21,21:40,0.178,0.156,0.260,0.247,0.246,0.140,0.085,northwest,0.6,No
2020/09/21,21:50,0.177,0.157,0.259,0.246,0.245,0.139,0.084,northwest,0.7,No
2020/09/21,22:00,0.178,0.156,0.259,0.248,0.247,0.139,0.083,north-northeast,0.8,No
2020/09/21,22:10,0.177,0.157,0.259,0.246,0.244,0.140,0.084,west-northwest,0.8,No
2020/09/21,22:20,0.178,0.157,0.260,0.246,0.246,0.139,0.084,north-northwest,0.8,No
2020/09/21,22:30,0.177,0.157,0.260,0.246,0.243,0.139,0.084,northwest,1.3,No
2020/09/21,22:40,0.179,0.156,0.261,0.245,0.246,0.140,0.084,north,1.5,No
2020/09/21,22:50,0.177,0.157,0.259,0.244,0.245,0.139,0.084,northwest,2.9,No
2020/09/21,23:00,0.177,0.157,0.260,0.247,0.247,0.140,0.083,northwest,2.3,No
2020/09/21,23:10,0.177,0.155,0.259,0.245,0.244,0.140,0.084,northwest,1.7,No
2020/09/21,23:20,0.179,0.156,0.261,0.247,0.245,0.140,0.084,northwest,1.7,No
2020/09/21,23:30,0.176,0.157,0.259,0.245,0.244,0.140,0.085,northwest,0.8,No
2020/09/21,23:40,0.178,0.156,0.259,0.247,0.245,0.139,0.084,north-northwest,1.1,No
2020/09/21,23:50,0.177,0.156,0.259,0.245,0.245,0.140,0.083,north,0.7,No
